This demonstration page uses our WeatherBlox Daily Observations layout. Learn more.

Left ArrowRight Arrow

39.51506, -84.39828

Hourly Observations for October 21, 2015

Temp ( °F °C ) Dew Point ( °F °C ) Humidity (%) Winds ( mph kmh ) Pressure ( in mb ) Visibility ( mi km ) Precip ( " mm )
12:15 am 00:15 Clear 47 8.2 41 5 80 80 N N/A 30.27 1025 10 16 N/A
12:35 am 00:35 Clear 47 8.2 41 5.1 81 81 N N/A 30.27 1025 10 16 N/A
12:55 am 00:55 Clear 47 8.2 42 5.3 82 82 N N/A 30.27 1025 10 16 N/A
1:15 am 01:15 Clear 44 6.4 39 4 85 85 N N/A 30.30 1026 10 16 N/A
1:35 am 01:35 Clear 43 6.1 39 3.9 86 86 N N/A 30.30 1026 10 16 N/A
1:55 am 01:55 Clear 43 6 39 3.7 85 85 N N/A 30.30 1026 10 16 N/A
2:15 am 02:15 Clear 42 5.8 38 3.5 85 85 N N/A 30.30 1026 10 16 N/A
2:35 am 02:35 Clear 43 6.1 38 3.6 84 84 N N/A 30.30 1026 10 16 N/A
2:55 am 02:55 Clear 43 6.1 39 3.7 85 85 N N/A 30.30 1026 10 16 N/A
3:15 am 03:15 Clear 44 6.4 39 3.9 84 84 N N/A 30.30 1026 10 16 N/A
3:35 am 03:35 Clear 44 6.8 40 4.3 84 84 N N/A 30.27 1025 10 16 N/A
3:55 am 03:55 Clear 43 6.1 39 3.8 85 85 N N/A 30.30 1026 10 16 N/A
4:15 am 04:15 Clear 43 6.1 39 3.7 85 85 N N/A 30.30 1026 10 16 N/A
4:35 am 04:35 Clear 42 5.8 38 3.6 86 86 N N/A 30.30 1026 10 16 N/A
4:55 am 04:55 Clear 42 5.5 38 3.5 87 87 N N/A 30.30 1026 10 16 N/A
5:15 am 05:15 Clear 42 5.3 38 3.3 87 87 N N/A 30.33 1027 7 11 N/A
5:35 am 05:35 Clear 41 4.9 38 3.2 89 89 N N/A 30.33 1027 10 16 N/A
5:55 am 05:55 Clear 42 5.5 39 3.7 88 88 N N/A 30.33 1027 10 16 N/A
6:15 am 06:15 Clear 43 6 40 4.3 89 89 N N/A 30.33 1027 10 16 N/A
6:35 am 06:35 Clear 43 6.2 39 4.1 87 87 N N/A 30.33 1027 10 16 N/A
6:55 am 06:55 Clear 42 5.6 38 3.6 87 87 N N/A 30.33 1027 10 16 N/A
7:15 am 07:15 Clear 42 5.6 39 3.7 88 88 N N/A 30.33 1027 10 16 N/A
7:35 am 07:35 Clear 42 5.5 38 3.5 87 87 N N/A 30.33 1027 7 11 N/A
7:55 am 07:55 Mostly Cloudy with Fog 42 5.5 38 3.6 88 88 N N/A 30.36 1028 1 1 N/A
8:15 am 08:15 Sunny with Mist and Fog 42 5.5 39 3.7 88 88 N N/A 30.36 1028 5 8 N/A
8:35 am 08:35 Sunny 42 5.5 39 3.7 88 88 N N/A 30.36 1028 7 11 N/A
8:55 am 08:55 Sunny 44 6.4 40 4.7 89 89 N N/A 30.36 1028 10 16 N/A
9:15 am 09:15 Sunny 49 9.6 46 7.7 88 88 N N/A 30.33 1027 10 16 N/A
9:35 am 09:35 Sunny 55 12.5 46 8 74 74 SW 3 6 30.33 1027 10 16 N/A
9:55 am 09:55 Sunny 57 13.8 43 6.2 60 60 SSW 6 9 30.33 1027 10 16 N/A
10:15 am 10:15 Sunny 57 13.8 41 5.1 56 56 SW 7 11 30.33 1027 10 16 N/A
10:35 am 10:35 Sunny 60 15.3 43 6.1 54 54 SW 5 7 30.33 1027 10 16 N/A
10:55 am 10:55 Sunny 61 16.1 42 5.4 49 49 SSW 7 11 30.33 1027 10 16 N/A
11:15 am 11:15 Sunny 62 16.7 42 5.6 48 48 SW 7 11 30.33 1027 10 16 N/A
11:35 am 11:35 Sunny 65 18.1 42 5.8 45 45 SSW 7 11 30.30 1026 10 16 N/A
11:55 am 11:55 Sunny 69 20.8 45 7.2 42 42 SW 7 11 30.27 1025 10 16 N/A
12:15 pm 12:15 Sunny 69 20.8 43 6.1 39 39 SSW 8 13 30.27 1025 10 16 N/A
12:35 pm 12:35 Sunny 71 21.6 42 5.8 36 36 S 8 13 30.27 1025 10 16 N/A
12:55 pm 12:55 Sunny 74 23.6 44 6.6 34 34 SSW 14 22 30.27 1025 10 16 N/A
1:15 pm 13:15 Sunny 74 23.6 42 5.7 32 32 SW 15 24 30.27 1025 10 16 N/A
1:35 pm 13:35 Sunny 74 23.6 41 4.9 30 30 SW 10 17 30.24 1024 10 16 N/A
1:55 pm 13:55 Sunny 74 23.6 41 4.9 30 30 SSW 12 19 30.24 1024 10 16 N/A
2:15 pm 14:15 Sunny 74 23.6 40 4.5 29 29 S 10 17 30.24 1024 10 16 N/A
2:35 pm 14:35 Sunny 74 23.6 39 4 28 28 SW 12 19 30.21 1023 10 16 N/A
2:55 pm 14:55 Sunny 74 23.6 41 4.8 30 30 SSW 12 19 30.21 1023 10 16 N/A
3:15 pm 15:15 Partly Cloudy 77 25.1 39 3.9 25 25 SSW 13 20 30.21 1023 10 16 N/A
3:35 pm 15:35 Partly Cloudy 77 25.1 39 3.8 25 25 SW 13 20 30.21 1023 10 16 N/A
3:55 pm 15:55 Sunny 77 25.1 38 3.2 24 24 SW 13 20 30.21 1023 10 16 N/A
4:15 pm 16:15 Sunny 77 25.1 39 3.8 25 25 WSW 15 24 30.21 1023 10 16 N/A
4:35 pm 16:35 Sunny 77 25.1 39 3.9 25 25 SW 9 15 30.21 1023 10 16 N/A
4:55 pm 16:55 Sunny 77 25.1 39 3.8 25 25 WSW 12 19 30.21 1023 10 16 N/A
5:15 pm 17:15 Sunny 74 23.6 37 2.8 26 26 SSW 14 22 30.21 1023 10 16 N/A
5:35 pm 17:35 Partly Cloudy 74 23.6 38 3.6 27 27 SSW 9 15 30.21 1023 7 11 N/A
5:55 pm 17:55 Partly Cloudy 74 23.6 40 4.5 29 29 SSW 9 15 30.21 1023 10 16 N/A
6:15 pm 18:15 Sunny 74 23.6 41 5.2 30 30 SW 9 15 30.21 1023 10 16 N/A
6:35 pm 18:35 Sunny 74 23.6 42 5.8 32 32 SW 8 13 30.21 1023 10 16 N/A
6:55 pm 18:55 Clear 69 20.8 43 6.3 39 39 SW 7 11 30.21 1023 10 16 N/A
7:15 pm 19:15 Clear 69 20.8 46 7.5 42 42 SW 5 7 30.21 1023 10 16 N/A
7:35 pm 19:35 Clear 64 17.7 43 6.1 47 47 SW 5 7 30.21 1023 10 16 N/A
7:55 pm 19:55 Clear 61 16.1 44 6.5 53 53 SW 5 7 30.24 1024 10 16 N/A
8:15 pm 20:15 Clear 61 16 45 7 55 55 N N/A 30.24 1024 10 16 N/A
8:35 pm 20:35 Clear 62 16.6 44 6.8 53 53 N N/A 30.24 1024 10 16 N/A
8:55 pm 20:55 Clear 60 15.8 45 7.3 57 57 W 3 6 30.24 1024 10 16 N/A
9:15 pm 21:15 Clear 58 14.3 45 7.4 63 63 N N/A 30.24 1024 10 16 N/A
9:35 pm 21:35 Clear 57 13.8 46 7.7 67 67 N N/A 30.24 1024 10 16 N/A
9:55 pm 21:55 Clear 55 12.5 46 7.7 73 73 N N/A 30.24 1024 10 16 N/A
10:15 pm 22:15 Clear 55 12.5 47 8.4 76 76 N N/A 30.24 1024 10 16 N/A
10:35 pm 22:35 Clear 55 12.5 47 8.3 76 76 N N/A 30.24 1024 10 16 N/A
10:55 pm 22:55 Clear 55 12.5 47 8.3 76 76 W 3 6 30.24 1024 10 16 N/A
11:15 pm 23:15 Clear 55 12.5 48 8.9 79 79 SW 3 6 30.24 1024 10 16 N/A
11:35 pm 23:35 Clear 55 12.5 47 8.5 77 77 N N/A 30.24 1024 10 16 N/A
11:55 pm 23:55 Clear 55 12.5 48 9.1 80 80 N N/A 30.24 1024 10 16 N/A

Powered by AerisWeather